Flag for U.S.A. Weather past 2 weeks in Pomona, California, U.S.A.

45 °F


Feels Like: 44 °F
Forecast: 40 / 61 °F
Wind: 3 mph from Northeast

Location: Chino Airport

Current Time: Nov 26, 2015 at 12:57:19 AM

Latest Report: Nov 25, 2015 at 11:53 PM

Visibility: 10 mi

Pressure: 29.97 "Hg

Humidity: 76%

Dew point: 38 °F

Location of PomonaLocation

Historic Weather in Pomona — Graph


Pomona temperature yesterday

Maximum temperature yesterday: 63 °F (at 12:53 PM)
Minimum temperature yesterday: 44 °F (at 10:53 PM)
Average temperature yesterday: 54 °F

Past Weeks' High & Low Weather Summary

High88 °F (Nov 20, 1:53 PM)93% (Nov 25, 2:53 AM)30.32 "Hg (Nov 25, 2:53 AM)
Low36 °F (Nov 17, 4:53 AM)5% (Nov 13, 1:53 PM)29.84 "Hg (Nov 25, 2:53 AM)
Average59 °F43%29.99 "Hg
* Reported Nov 10 11:53 PM — Nov 25 11:53 PM, Pomona, Weather by CustomWeather, © 2015

Note: Actual official high and low records may vary slightly from our data, if they occured in-between our weather recording intervals... More about our weather records


Pomona weather history for previous 24 hours

Time TempWeatherWind HumidityBarometerVisibility
11:53 PM
Wed, Nov 25
45 °FClear.3 mph76%29.97 "Hg10 mi
10:53 PM44 °FClear.No wind79%29.97 "Hg9 mi
9:53 PM48 °FClear.3 mph71%29.96 "Hg10 mi
8:53 PM48 °FClear.No wind71%29.95 "Hg10 mi
7:53 PM49 °FPassing clouds.No wind66%29.93 "Hg10 mi
6:53 PM49 °FPassing clouds.5 mph66%29.93 "Hg10 mi
5:53 PM51 °FPassing clouds.3 mph61%29.91 "Hg10 mi
4:53 PM54 °FPassing clouds.8 mph55%29.90 "Hg10 mi
3:53 PM58 °FPartly sunny.12 mph46%29.89 "Hg10 mi
2:53 PM61 °FPartly sunny.13 mph42%29.88 "Hg10 mi
1:53 PM62 °FPartly sunny.17 mph41%29.87 "Hg10 mi
12:53 PM63 °FPartly sunny.13 mph41%29.87 "Hg10 mi
11:53 AM61 °FScattered clouds.10 mph41%29.88 "Hg10 mi
10:53 AM60 °FScattered clouds.7 mph46%29.91 "Hg10 mi
9:53 AM58 °FScattered clouds.8 mph58%29.93 "Hg10 mi
8:53 AM54 °FPartly sunny.7 mph67%29.92 "Hg10 mi
7:53 AM53 °FScattered clouds.6 mph69%29.90 "Hg10 mi
6:53 AM51 °FPartly sunny.No wind77%29.88 "Hg10 mi
5:53 AM51 °FClear.6 mph77%29.85 "Hg10 mi
4:53 AM53 °FOvercast.10 mph77%29.85 "Hg10 mi
3:53 AM55 °FOvercast.9 mph87%29.84 "Hg9 mi
2:53 AM55 °FFog.7 mph93%29.84 "Hg5 mi
1:53 AM55 °FLight rain. Fog.No wind90%29.85 "Hg2 mi
12:53 AM55 °FMostly cloudy.No wind90%29.85 "Hg8 mi
Weather by CustomWeather, © 2015

See weather overviewHow to use our weather pages